Location: Napier
(39.4830°S, 176.9170°E)
Time: 11:54:24
(UTC+13:00)

Daily predictions for brighter satellites

Satellite Brightness Start Highest point End
(mag) Time Altitude Azimuth Time Altitude Azimuth Time Altitude Azimuth
Cosmos 968 Rocket 3.5 19:58:17 10° NNW 20:03:28 83° ENE 20:08:41 10° SSE
Cosmos 220 Rocket 4.1 20:02:07 10° SSW 20:06:33 88° W 20:10:53 10° NNE
Cosmos 2369 Rocket 4.3 20:02:28 10° SW 20:07:20 29° WNW 20:12:10 10° NNW
Meteor 1-11 4.3 20:06:12 10° N 20:11:59 70° E 20:17:46 10° SSE
Cosmos 2123 Rocket 4.2 20:06:32 10° S 20:12:57 84° W 20:19:19 10° N
Cosmos 1455 2.5 20:09:08 10° S 20:13:04 74° W 20:16:57 10° N
ISS -3.2 20:10:01 10° WNW 20:13:22 62° SW 20:16:45 10° SE
Cosmos 1656 Rocket 4.4 20:10:29 10° SSW 20:16:07 59° WNW 20:21:42 10° N
YAOGAN 6 2.6 20:13:44 10° SSE 20:17:32 77° E 20:21:17 10° N
Okean-O 3.6 20:13:45 10° S 20:18:09 53° WSW 20:22:29 10° NNW
Aureole 2 Rocket 1.9 20:16:34 10° S 20:19:19 56° ESE 20:21:58 10° NNE
Cosmos 1703 4.2 20:20:02 10° NNW 20:23:51 52° W 20:27:44 10° S
CZ-4 R/B 4.5 20:22:04 10° SSE 20:26:18 89° WSW 20:30:28 10° NNW
Cosmos 1605 Rocket 4.3 20:26:27 10° NNW 20:32:34 75° W 20:38:50 10° S
Cosmos 1833 Rocket 4.1 20:29:09 10° NE 20:32:44 17° E 20:36:20 10° ESE
Envisat 3.7 20:31:43 10° S 20:36:47 59° WSW 20:41:47 10° NNW
Cosmos 1340 Rocket 3.9 20:33:31 10° SSW 20:37:24 47° W 20:41:12 10° NNW
Cosmos 1867 3.7 20:32:01 10° SSW 20:37:24 59° SE 20:41:44 16° NE
H-2A R/B 3.8 20:40:40 10° ESE 20:42:25 13° E 20:42:25 13° E
Cosmos 2173 Rocket 4.0 20:44:01 10° NNE 20:49:56 55° E 20:55:57 10° SSE
Cosmos 1777 Rocket 4.1 20:45:09 10° N 20:50:14 56° ENE 20:55:26 10° SSE
CZ-2D R/B 3.1 20:47:51 10° SSE 20:51:45 77° E 20:55:35 10° N
Cosmos 1939 Rocket 2.7 20:49:44 10° SSE 20:53:41 71° ENE 20:57:34 10° N
YAOGAN 1 3.2 20:51:29 10° S 20:55:49 60° WSW 21:00:06 10° NNW
CZ-4C R/B 3.0 20:49:33 10° NNW 20:57:48 86° ENE 21:05:03 10° SE
Cosmos 1802 Rocket 4.1 20:54:18 10° NNE 21:00:23 55° E 21:06:28 10° SSE
Cosmos 1869 3.3 20:59:32 10° S 21:03:35 62° E 21:05:39 27° NNE
Cosmos 1538 Rocket 4.3 20:58:53 10° S 21:04:00 48° ESE 21:06:28 28° NE
CSL-04 Rocket 4.1 20:58:37 10° S 21:04:10 67° WSW 21:09:42 10° NNW
Cosmos 2082 Rocket 3.4 21:05:23 22° E 21:05:23 22° E 21:08:58 10° SE
Haruka 4.4 20:55:53 10° W 21:08:28 36° NNW 21:11:13 22° NNE
GPS 2-04 Rocket1 2.9 21:05:18 10° WNW 21:08:37 40° N 21:09:00 39° NNE
DELTA 2 R/B (1) 3.6 21:03:13 10° W 21:08:54 89° S 21:12:30 23° E
Cosmos 2221 3.7 21:06:30 10° SSW 21:10:41 43° W 21:14:47 10° NNW
Cosmos 1766 Rocket 4.0 21:09:15 31° NE 21:10:43 42° E 21:15:00 10° SSE
ARGOS 4.3 21:07:25 10° SE 21:11:27 24° E 21:11:27 24° E
PSLV R/B 3.7 21:09:19 10° W 21:11:38 35° NW 21:11:38 35° NW
Cosmos 1892 3.0 21:11:35 41° ENE 21:12:00 42° E 21:15:41 10° SSE
Cosmos 1725 Rocket 4.3 21:09:16 20° NNE 21:13:21 46° E 21:19:22 10° SSE
Lacrosse 4 Rocket 3.7 21:11:28 10° SSE 21:13:33 13° SE 21:14:28 12° ESE
Cosmos 1076 Rocket 4.4 21:13:56 10° NNW 21:18:06 49° W 21:22:18 10° S
Cosmos 2100 Rocket 4.1 21:12:02 10° N 21:18:15 81° W 21:24:35 10° S
BREEZE-M DEB (TANK) 4.1 21:16:44 10° SSW 21:18:21 15° SSE 21:19:48 12° SE
Ariane Rocket 2.9 21:14:16 10° SSE 21:19:26 87° ENE 21:24:33 10° NNW
Lacrosse 5 rocket 3.8 21:16:33 10° N 21:16:53 12° N 21:16:53 12° N
USA 229 DEB 3.6 21:14:37 10° SW 21:21:29 80° WNW 21:25:18 27° NNE
ATLAS CENTAUR R/B 4.2 21:05:43 10° NW 21:21:33 66° SW 21:27:08 10° SE
USA 229 3.6 21:14:38 10° SW 21:21:33 82° WNW 21:25:22 27° NNE
Cosmos 1408 Rocket 4.2 21:21:55 36° E 21:21:55 36° E 21:25:56 10° SSE
Cosmos 1697 Rocket 3.7 21:17:25 10° S 21:22:23 30° ESE 21:23:50 27° E
Okean 3 Rocket 3.4 21:19:49 21° N 21:22:46 79° E 21:27:15 10° S
COSMOS 2406 3.3 21:17:16 10° NNW 21:22:58 79° WSW 21:28:43 10° SSE
Cosmos 2058 3.5 21:19:45 10° NNW 21:23:52 59° W 21:28:02 10° S
CZ-4 R/B 4.3 21:22:34 10° SSW 21:25:26 19° WSW 21:28:19 10° WNW
MOS 1 Rocket 3.7 21:24:44 39° ENE 21:25:46 46° ESE 21:30:36 10° S
FREGAT/IRIS 3.0 21:24:49 10° S 21:27:07 52° S 21:27:07 52° S
NOSS 3-1 (A) 3.3 21:21:24 10° SSW 21:27:43 67° SE 21:29:47 39° ENE
In-Cosmos 22 Rocket 4.2 21:22:01 10° N 21:27:49 87° E 21:33:45 10° S
USA 215 3.4 21:25:58 10° SE 21:32:20 49° NE 21:38:38 10° NNW
USA 186 2.1 21:29:06 10° SSE 21:32:00 57° SE 21:32:00 57° SE
Cosmos 2016 Rocket 4.0 21:28:42 10° N 21:35:06 87° E 21:41:32 10° S
Cosmos 2369 4.2 21:30:20 10° S 21:35:45 41° ESE 21:36:53 37° E
Cosmos 2151 2.9 21:36:44 42° N 21:38:10 88° W 21:42:31 10° S
CZ-2C R/B 4.2 21:35:02 10° SE 21:38:41 29° ESE 21:38:41 29° ESE
MOS 1 4.2 21:34:53 10° SSE 21:40:42 82° ENE 21:44:50 20° N
SJ-6B 2.9 21:37:56 10° SSE 21:41:47 65° ESE 21:41:47 65° ESE
NOSS 3-1 (C) 3.5 21:36:05 10° SW 21:42:11 61° WNW 21:44:19 37° N
CZ-2C R/B 3.2 21:39:24 21° N 21:42:50 53° W 21:47:58 10° SSW
SL-08 R/B 4.4 21:38:54 20° N 21:43:20 85° E 21:49:41 10° S
Cosmos 1816 Rocket 4.4 21:38:12 10° S 21:44:23 65° E 21:46:04 46° NE
Atlas 2A Centaur Rocket 4.2 21:18:51 10° WNW 21:44:24 40° NNW 21:46:52 33° NNE
ISS -0.7 21:48:32 10° SW 21:50:39 15° SSW 21:52:48 10° SSE
BREEZE-M R/B 3.9 21:42:07 10° WSW 21:51:25 55° SSE 21:51:48 52° SE
Cosmos 1408 4.2 21:57:07 28° SSE 21:57:07 28° SSE 21:59:00 10° S
Cosmos 1656 3.6 21:49:37 10° SSW 21:55:23 88° WNW 21:56:36 58° NNE
Cosmos 2112 Rocket 4.5 21:59:15 10° S 22:04:11 48° ESE 22:04:11 48° ESE
Cosmos 2278 3.9 22:00:13 10° SSW 22:05:49 53° ESE 22:05:57 53° ESE
SPOT 3 Rocket 3.4 22:01:56 10° SSE 22:07:12 90° W 22:07:46 72° NNW
NOSS 2-3 (C) 4.1 22:05:27 10° SW 22:12:07 84° WNW 22:12:32 77° N
Cosmos 1980 Rocket 2.8 22:09:42 10° S 22:14:45 42° SE 22:14:45 42° SE
Cosmos 1833 Rocket 3.1 22:10:28 10° NW 22:16:04 62° WSW 22:21:43 10° SSE
Resurs 01 Rocket 3.3 22:12:07 10° SSE 22:14:09 25° SSE 22:14:09 25° SSE
Cosmos 1680 Rocket 3.6 22:15:13 10° SSW 22:20:09 72° SSE 22:20:09 72° SSE
Cosmos 1515 Rocket 4.3 22:17:50 10° S 22:21:09 49° S 22:21:09 49° S
H-2A R/B 2.2 22:17:45 10° S 22:22:45 68° WSW 22:23:03 66° W
SJ 16-02 3.6 22:27:05 18° SSE 22:27:05 18° SSE 22:28:14 10° SSE
Tsikada Rocket 4.2 22:19:13 10° SSW 22:25:23 63° W 22:26:44 51° NW
Mayak 0.8 22:30:32 23° SSE 22:30:32 23° SSE 22:32:22 10° S
Meteor 2-3 Rocket 4.0 22:30:36 59° SE 22:30:36 59° SE 22:35:23 10° SSE
Cosmos 1151 Rocket 4.3 22:30:29 10° SSW 22:33:48 37° WSW 22:33:48 37° WSW
Cosmos 923 Rocket 4.5 22:29:32 10° SSW 22:34:36 57° W 22:34:36 57° W
ATLAS CENTAUR Rocket 3.9 22:08:52 10° W 22:38:03 45° NNW 22:38:39 44° N
Cosmos 2082 Rocket 3.0 22:47:05 41° WNW 22:48:25 49° WSW 22:53:55 10° SSE
ARGOS 4.1 22:47:00 10° S 22:52:07 43° WSW 22:52:58 40° W
Lacrosse 4 Rocket 3.2 22:48:19 10° SSW 22:50:47 32° SSW 22:50:47 32° SSW
Lacrosse 5 rocket 4.5 23:04:11 10° SSE 23:04:11 10° SSE 23:04:15 10° SSE
Cosmos 1697 Rocket 3.9 23:01:11 10° SW 23:05:35 36° W 23:05:35 36° W
USA 215 4.0 23:08:58 10° SE 23:15:17 50° SW 23:21:36 10° WNW
SL-16 R/B 3.5 23:12:28 10° S 23:16:05 33° SSE 23:16:05 33° SSE
Cosmos 2322 Rocket 3.6 23:40:20 10° SSW 23:43:34 34° S 23:43:34 34° S
USA 267 3.8 23:49:25 56° SSW 23:49:25 56° SSW 23:54:33 10° SW
Resurs 01 Rocket 4.4 23:50:03 10° SSW 23:51:43 14° SW 23:51:43 14° SW
Cosmos 2360 Rocket 4.0 23:48:08 10° S 23:51:06 26° SSE 23:51:06 26° SSE
